Mount Pleasant, TX

9:53 AM CST on November 21, 2017 (GMT -0600)
Mount Pleasant

Weather History for KOSA - December, 2012

Change the Weather History Date:

Monday, December 10, 2012

  Actual Average (KGGG) Record (KGGG)
Temperature  
Mean Temperature 41 °F -  
Max Temperature 50 °F 56 °F 83 °F (1939)
Min Temperature 32 °F 37 °F 20 °F (1917)
Degree Days  
Heating Degree Days 24    
Moisture  
Dew Point 23 °F    
Average Humidity 56    
Maximum Humidity 75    
Minimum Humidity 42    
Precipitation  
Precipitation 0.00 in - - ()
Sea Level Pressure  
Sea Level Pressure 30.08 in    
Wind  
Wind Speed 15 mph (NW)    
Max Wind Speed 23 mph    
Max Gust Speed 29 mph    
Visibility 10 miles    
Events      
Averages and records for this station are not official NWS values.
T = Trace of Precipitation, MM = Missing Value Source: NWS Daily Summary

Daily Weather History Graph

Daily Weather History Graph

Search for Another Location

Airport or City:

Trip Planner

Search our weather history database for the weather conditions in past years. The results will help you decide how hot, cold, wet, or windy it might be!

Date:

Astronomy

Dec. 10, 2012 Rise Set
Actual Time 7:12 AM CST 5:13 PM CST
Civil Twilight 6:45 AM CST 5:40 PM CST
Nautical Twilight 6:14 AM CST 6:11 PM CST
Astronomical Twilight 5:44 AM CST 6:41 PM CST
Moon 4:02 AM CST (12/10) 2:58 PM CST (12/10)
Length of Visible Light 10h 55m
Length of Day
10h 00m
Waning Crescent, 10% of the Moon is Illuminated
Dec 10
Waning Crescent
Dec 13
New
Dec 19
First Quarter
Dec 28
Full
Jan 4
Last Quarter

Hourly Weather History & Observations

Time (CST) Temp. Windchill Dew Point Humidity Pressure Visibility Wind Dir Wind Speed Gust Speed Precip Events Conditions
12:15 AM 50.0 °F - 37.4 °F 62% 29.97 in 10.0 mi NW 18.4 mph 24.2 mph N/A   Mostly Cloudy
12:35 AM 48.2 °F - 35.6 °F 62% 29.95 in 10.0 mi NW 18.4 mph 25.3 mph N/A   Scattered Clouds
12:55 AM 46.4 °F 39.8 °F 32.0 °F 57% 29.96 in 10.0 mi NW 16.1 mph 21.9 mph N/A   Scattered Clouds
1:15 AM 46.4 °F 40.1 °F 32.0 °F 57% 29.94 in 10.0 mi NNW 15.0 mph 27.6 mph N/A   Scattered Clouds
1:35 AM 46.4 °F 39.5 °F 32.0 °F 57% 29.95 in 10.0 mi NW 17.3 mph 21.9 mph N/A   Scattered Clouds
1:55 AM 44.6 °F 38.4 °F 30.2 °F 57% 29.96 in 10.0 mi NW 12.7 mph 21.9 mph N/A   Scattered Clouds
2:15 AM 42.8 °F 34.5 °F 28.4 °F 57% 29.96 in 10.0 mi NW 18.4 mph 26.5 mph N/A   Scattered Clouds
2:55 AM 41.0 °F 31.6 °F 26.6 °F 57% 29.99 in 10.0 mi WNW 20.7 mph 25.3 mph N/A   Scattered Clouds
3:15 AM 39.2 °F 30.8 °F 24.8 °F 56% 30.00 in 10.0 mi NW 15.0 mph 23.0 mph N/A   Scattered Clouds
3:35 AM 37.4 °F 26.6 °F 23.0 °F 56% 30.01 in 10.0 mi NW 21.9 mph 27.6 mph N/A   Scattered Clouds
3:55 AM 37.4 °F 27.5 °F 23.0 °F 56% 30.03 in 10.0 mi WNW 18.4 mph 26.5 mph N/A   Scattered Clouds
4:15 AM 35.6 °F 24.8 °F 23.0 °F 60% 30.05 in 10.0 mi WNW 19.6 mph 26.5 mph N/A   Scattered Clouds
4:35 AM 35.6 °F 25.9 °F 21.2 °F 56% 30.03 in 10.0 mi NW 16.1 mph 24.2 mph N/A   Scattered Clouds
4:55 AM 35.6 °F 24.2 °F 19.4 °F 52% 30.06 in 10.0 mi NW 21.9 mph 28.8 mph N/A   Scattered Clouds
5:15 AM 35.6 °F 24.5 °F 19.4 °F 52% 30.07 in 10.0 mi WNW 20.7 mph 27.6 mph N/A   Scattered Clouds
5:35 AM 35.6 °F 25.9 °F 19.4 °F 52% 30.08 in 10.0 mi WNW 16.1 mph 26.5 mph N/A   Scattered Clouds
5:55 AM 35.6 °F 27.1 °F 19.4 °F 52% 30.08 in 10.0 mi WNW 12.7 mph 25.3 mph N/A   Scattered Clouds
6:15 AM 35.6 °F 27.5 °F 19.4 °F 52% 30.08 in 10.0 mi NW 11.5 mph - N/A   Scattered Clouds
6:35 AM 35.6 °F 28.0 °F 19.4 °F 52% 30.07 in 10.0 mi NW 10.4 mph 20.7 mph N/A   Scattered Clouds
7:15 AM 33.8 °F 21.6 °F 19.4 °F 56% 30.10 in 10.0 mi NW 23.0 mph 28.8 mph N/A   Scattered Clouds
7:35 AM 33.8 °F 23.2 °F 19.4 °F 56% 30.10 in 10.0 mi NW 17.3 mph 24.2 mph N/A   Scattered Clouds
7:55 AM 33.8 °F 24.3 °F 19.4 °F 56% 30.11 in 10.0 mi NW 13.8 mph 24.2 mph N/A   Mostly Cloudy
8:15 AM 33.8 °F 23.2 °F 23.0 °F 65% 30.12 in 10.0 mi NW 17.3 mph 24.2 mph N/A   Mostly Cloudy
8:35 AM 32.0 °F 20.8 °F 24.8 °F 75% 30.13 in 10.0 mi WNW 17.3 mph 25.3 mph N/A   Mostly Cloudy
8:55 AM 32.0 °F 20.8 °F 24.8 °F 75% 30.13 in 10.0 mi NW 17.3 mph 24.2 mph N/A   Scattered Clouds
9:15 AM 33.8 °F 23.5 °F 23.0 °F 65% 30.14 in 10.0 mi NW 16.1 mph 26.5 mph N/A   Clear
9:35 AM 35.6 °F 25.9 °F 23.0 °F 60% 30.14 in 10.0 mi WNW 16.1 mph 24.2 mph N/A   Clear
9:55 AM 35.6 °F 25.9 °F 23.0 °F 60% 30.14 in 10.0 mi WNW 16.1 mph 23.0 mph N/A   Clear
10:15 AM 35.6 °F 25.5 °F 24.8 °F 65% 30.14 in 10.0 mi WNW 17.3 mph 21.9 mph N/A   Clear
10:35 AM 35.6 °F 25.2 °F 26.6 °F 70% 30.13 in 10.0 mi NW 18.4 mph 24.2 mph N/A   Clear
10:55 AM 35.6 °F 26.6 °F 26.6 °F 70% 30.12 in 10.0 mi NW 13.8 mph - N/A   Clear
11:15 AM 37.4 °F 28.2 °F 26.6 °F 65% 30.12 in 10.0 mi WNW 16.1 mph 19.6 mph N/A   Clear
11:55 AM 39.2 °F 30.8 °F 24.8 °F 56% 30.11 in 10.0 mi NW 15.0 mph 23.0 mph N/A   Clear
12:15 PM 39.2 °F 31.6 °F 24.8 °F 56% 30.10 in 10.0 mi NNW 12.7 mph 18.4 mph N/A   Clear
12:35 PM 41.0 °F 33.9 °F 24.8 °F 53% 30.10 in 10.0 mi WNW 12.7 mph 19.6 mph N/A   Clear
12:55 PM 41.0 °F 33.9 °F 24.8 °F 53% 30.09 in 10.0 mi NW 12.7 mph 20.7 mph N/A   Clear
1:15 PM 41.0 °F 34.7 °F 23.0 °F 49% 30.09 in 10.0 mi WNW 10.4 mph - N/A   Clear
1:35 PM 41.0 °F 33.5 °F 23.0 °F 49% 30.08 in 10.0 mi WNW 13.8 mph 23.0 mph N/A   Clear
1:55 PM 42.8 °F 36.2 °F 23.0 °F 46% 30.07 in 10.0 mi WNW 12.7 mph - N/A   Clear
2:15 PM 42.8 °F 36.2 °F 23.0 °F 46% 30.07 in 10.0 mi West 12.7 mph 16.1 mph N/A   Clear
2:35 PM 42.8 °F 37.5 °F 21.2 °F 42% 30.07 in 10.0 mi NW 9.2 mph 20.7 mph N/A   Clear
2:55 PM 42.8 °F 37.0 °F 21.2 °F 42% 30.07 in 10.0 mi NW 10.4 mph - N/A   Clear
3:15 PM 42.8 °F 37.0 °F 21.2 °F 42% 30.07 in 10.0 mi WNW 10.4 mph 18.4 mph N/A   Clear
3:35 PM 42.8 °F 37.0 °F 21.2 °F 42% 30.07 in 10.0 mi NW 10.4 mph - N/A   Clear
3:55 PM 42.8 °F 36.6 °F 21.2 °F 42% 30.08 in 10.0 mi NW 11.5 mph - N/A   Clear
4:15 PM 42.8 °F 38.6 °F 21.2 °F 42% 30.08 in 10.0 mi WNW 6.9 mph - N/A   Clear
4:35 PM 42.8 °F 36.6 °F 21.2 °F 42% 30.07 in 10.0 mi NW 11.5 mph - N/A   Clear
4:55 PM 41.0 °F 35.2 °F 21.2 °F 45% 30.07 in 10.0 mi WNW 9.2 mph - N/A   Clear
5:15 PM 41.0 °F 36.4 °F 21.2 °F 45% 30.07 in 10.0 mi WNW 6.9 mph - N/A   Clear
5:35 PM 39.2 °F 33.6 °F 21.2 °F 49% 30.07 in 10.0 mi WNW 8.1 mph - N/A   Clear
5:55 PM 37.4 °F 32.1 °F 21.2 °F 52% 30.07 in 10.0 mi WNW 6.9 mph - N/A   Clear
6:15 PM 37.4 °F 32.1 °F 21.2 °F 52% 30.07 in 10.0 mi WNW 6.9 mph - N/A   Clear
6:35 PM 37.4 °F 31.4 °F 21.2 °F 52% 30.08 in 10.0 mi WNW 8.1 mph - N/A   Clear
6:55 PM 35.6 °F 30.7 °F 21.2 °F 56% 30.10 in 10.0 mi West 5.8 mph - N/A   Clear
7:15 PM 35.6 °F 29.9 °F 21.2 °F 56% 30.10 in 10.0 mi WNW 6.9 mph - N/A   Clear
7:35 PM 35.6 °F 30.7 °F 21.2 °F 56% 30.10 in 10.0 mi West 5.8 mph - N/A   Clear
7:55 PM 35.6 °F 29.9 °F 21.2 °F 56% 30.11 in 10.0 mi WNW 6.9 mph - N/A   Clear
8:15 PM 33.8 °F 28.6 °F 21.2 °F 60% 30.12 in 10.0 mi WNW 5.8 mph - N/A   Clear
8:55 PM 33.8 °F 27.7 °F 21.2 °F 60% 30.13 in 10.0 mi WNW 6.9 mph - N/A   Clear
9:15 PM 33.8 °F 28.6 °F 21.2 °F 60% 30.13 in 10.0 mi WNW 5.8 mph - N/A   Clear
9:35 PM 32.0 °F 26.4 °F 21.2 °F 64% 30.12 in 10.0 mi NW 5.8 mph - N/A   Clear
9:55 PM 33.8 °F 27.0 °F 21.2 °F 60% 30.13 in 10.0 mi NW 8.1 mph - N/A   Clear
10:15 PM 32.0 °F 27.5 °F 21.2 °F 64% 30.14 in 10.0 mi NW 4.6 mph - N/A   Clear
10:35 PM 32.0 °F 27.5 °F 21.2 °F 64% 30.14 in 10.0 mi NW 4.6 mph - N/A   Clear
10:55 PM 32.0 °F 26.4 °F 21.2 °F 64% 30.14 in 10.0 mi NW 5.8 mph - N/A   Clear
11:15 PM 32.0 °F 25.6 °F 21.2 °F 64% 30.14 in 10.0 mi NW 6.9 mph - N/A   Clear
11:35 PM 32.0 °F 27.5 °F 19.4 °F 60% 30.15 in 10.0 mi NW 4.6 mph - N/A   Clear
11:55 PM 32.0 °F 27.5 °F 19.4 °F 60% 30.14 in 10.0 mi NW 4.6 mph - N/A   Clear